Belspring, VA

4:09 AM EDT on September 30, 2016 (GMT -0400)
New River Valley

Weather History for KPSK - January, 2014

Change the Weather History Date:

Sunday, January 19, 2014

  Actual Average (KBCB) Record (KBCB)
Temperature  
Mean Temperature 30 °F 31 °F  
Max Temperature 39 °F 42 °F 64 °F (1990)
Min Temperature 21 °F 21 °F -11 °F (1994)
Degree Days  
Heating Degree Days 35 34  
Month to date heating degree days 646  
Since 1 July heating degree days 2793  
Cooling Degree Days 0 0  
Month to date cooling degree days 0  
Year to date cooling degree days 0  
Moisture  
Dew Point 23 °F    
Average Humidity 71    
Maximum Humidity 86    
Minimum Humidity 56    
Precipitation  
Precipitation 0.00 in 0.09 in 1.12 in (1987)
Month to date precipitation 1.90  
Year to date precipitation 1.90  
Snow  
Snow 0.00 in - - ()
Month to date snowfall  
Since 1 July snowfall  
Snow Depth -    
Sea Level Pressure  
Sea Level Pressure 29.88 in    
Wind  
Wind Speed 6 mph (WSW)    
Max Wind Speed 16 mph    
Max Gust Speed 24 mph    
Visibility 10 miles    
Events      
T = Trace of Precipitation, MM = Missing Value Source: NWS Daily Summary

Daily Weather History Graph

Daily Weather History Graph

Search for Another Location

Airport or City:

Trip Planner

Search our weather history database for the weather conditions in past years. The results will help you decide how hot, cold, wet, or windy it might be!

Date:

Astronomy

Jan. 19, 2014 Rise Set
Actual Time 7:33 AM EST 5:33 PM EST
Civil Twilight 7:05 AM EST 6:01 PM EST
Nautical Twilight 6:33 AM EST 6:33 PM EST
Astronomical Twilight 6:02 AM EST 7:04 PM EST
Moon 9:04 PM EST (1/19) 9:08 AM EST (1/19)
Length of Visible Light 10h 56m
Length of Day
9h 59m
Waning Gibbous, 89% of the Moon is Illuminated
Jan 19
Waning Gibbous
Jan 24
Last Quarter
Jan 30
New
Feb 6
First Quarter
Feb 14
Full

Hourly Weather History & Observations

Time (EST) Temp. Windchill Dew Point Humidity Pressure Visibility Wind Dir Wind Speed Gust Speed Precip Events Conditions
12:15 AM 26.6 °F - 15.8 °F 64% 29.88 in 10.0 mi Calm Calm - N/A   Overcast
12:35 AM 24.8 °F - 15.8 °F 69% 29.87 in 10.0 mi Calm Calm - N/A   Overcast
12:55 AM 24.8 °F - 15.8 °F 69% 29.85 in 10.0 mi Calm Calm - N/A   Overcast
1:15 AM 24.8 °F - 17.6 °F 74% 29.85 in 10.0 mi Calm Calm - N/A   Overcast
1:35 AM 24.8 °F - 17.6 °F 74% 29.84 in 10.0 mi Calm Calm - N/A   Overcast
1:55 AM 24.8 °F - 17.6 °F 74% 29.84 in 10.0 mi Calm Calm - N/A   Overcast
2:15 AM 24.8 °F - 19.4 °F 80% 29.84 in 10.0 mi Calm Calm - N/A   Overcast
2:35 AM 24.8 °F - 19.4 °F 80% 29.84 in 10.0 mi Calm Calm - N/A   Overcast
2:55 AM 23.0 °F - 17.6 °F 80% 29.83 in 10.0 mi Calm Calm - N/A   Scattered Clouds
3:15 AM 21.2 °F - 17.6 °F 86% 29.84 in 10.0 mi Calm Calm - N/A   Clear
3:35 AM 21.2 °F 14.9 °F 15.8 °F 80% 29.84 in 10.0 mi SW 4.6 mph - N/A   Clear
3:55 AM 23.0 °F - 17.6 °F 80% 29.83 in 10.0 mi Calm Calm - N/A   Clear
4:15 AM 24.8 °F - 17.6 °F 74% 29.83 in 10.0 mi Calm Calm - N/A   Scattered Clouds
4:35 AM 23.0 °F 15.8 °F 17.6 °F 80% 29.83 in 10.0 mi WSW 5.8 mph - N/A   Mostly Cloudy
4:55 AM 28.4 °F 23.3 °F 19.4 °F 69% 29.82 in 10.0 mi SW 4.6 mph - N/A   Overcast
5:15 AM 28.4 °F 22.2 °F 17.6 °F 64% 29.83 in 10.0 mi SW 5.8 mph - N/A   Overcast
5:35 AM 30.2 °F 22.6 °F 17.6 °F 60% 29.82 in 10.0 mi SW 8.1 mph - N/A   Overcast
5:55 AM 30.2 °F 21.9 °F 17.6 °F 60% 29.83 in 10.0 mi SW 9.2 mph - N/A   Mostly Cloudy
6:15 AM 30.2 °F 22.6 °F 17.6 °F 60% 29.83 in 10.0 mi WSW 8.1 mph - N/A   Mostly Cloudy
6:35 AM 30.2 °F 21.9 °F 17.6 °F 60% 29.84 in 10.0 mi WSW 9.2 mph - N/A   Overcast
6:55 AM 30.2 °F 21.3 °F 17.6 °F 60% 29.84 in 10.0 mi SW 10.4 mph - N/A   Overcast
7:15 AM 30.2 °F 21.3 °F 19.4 °F 64% 29.84 in 10.0 mi SW 10.4 mph - N/A   Mostly Cloudy
7:35 AM 28.4 °F 19.1 °F 21.2 °F 74% 29.84 in 10.0 mi SW 10.4 mph - N/A   Clear
7:55 AM 28.4 °F 20.4 °F 21.2 °F 74% 29.86 in 10.0 mi SW 8.1 mph - N/A   Clear
8:15 AM 28.4 °F 20.4 °F 24.8 °F 86% 29.86 in 10.0 mi SW 8.1 mph - N/A   Scattered Clouds
8:35 AM 30.2 °F 23.4 °F 24.8 °F 80% 29.87 in 10.0 mi SSW 6.9 mph - N/A   Mostly Cloudy
8:55 AM 30.2 °F 23.4 °F 24.8 °F 80% 29.88 in 10.0 mi SSW 6.9 mph - N/A   Mostly Cloudy
9:15 AM 33.8 °F 26.4 °F 24.8 °F 70% 29.88 in 10.0 mi SSW 9.2 mph - N/A   Mostly Cloudy
9:35 AM 33.8 °F 26.4 °F 24.8 °F 70% 29.89 in 10.0 mi WSW 9.2 mph - N/A   Mostly Cloudy
9:55 AM 33.8 °F 27.7 °F 26.6 °F 75% 29.89 in 10.0 mi WSW 6.9 mph - N/A   Overcast
10:15 AM 35.6 °F 29.9 °F 26.6 °F 70% 29.90 in 10.0 mi WSW 6.9 mph - N/A   Overcast
10:35 AM 35.6 °F 29.2 °F 26.6 °F 70% 29.90 in 10.0 mi WSW 8.1 mph - N/A   Overcast
10:55 AM 35.6 °F 26.6 °F 26.6 °F 70% 29.90 in 10.0 mi WSW 13.8 mph 18.4 mph N/A   Overcast
11:15 AM 37.4 °F 28.5 °F 26.6 °F 65% 29.90 in 10.0 mi WSW 15.0 mph 19.6 mph N/A   Overcast
11:35 AM 37.4 °F 28.9 °F 26.6 °F 65% 29.90 in 10.0 mi West 13.8 mph 19.6 mph N/A   Overcast
11:55 AM 35.6 °F 25.9 °F 24.8 °F 65% 29.90 in 10.0 mi West 16.1 mph - N/A   Overcast
12:15 PM 35.6 °F 26.2 °F 24.8 °F 65% 29.89 in 10.0 mi West 15.0 mph 24.2 mph N/A   Overcast
12:35 PM 35.6 °F 28.0 °F 24.8 °F 65% 29.89 in 10.0 mi West 10.4 mph 18.4 mph N/A   Overcast
12:55 PM 35.6 °F 27.1 °F 24.8 °F 65% 29.89 in 10.0 mi West 12.7 mph 19.6 mph N/A   Overcast
1:15 PM 35.6 °F 27.1 °F 24.8 °F 65% 29.89 in 10.0 mi West 12.7 mph 18.4 mph N/A   Overcast
1:35 PM 37.4 °F 28.9 °F 24.8 °F 60% 29.88 in 10.0 mi West 13.8 mph 20.7 mph N/A   Overcast
1:55 PM 37.4 °F 30.3 °F 24.8 °F 60% 29.89 in 10.0 mi West 10.4 mph 17.3 mph N/A   Overcast
2:15 PM 37.4 °F 29.8 °F 24.8 °F 60% 29.89 in 10.0 mi West 11.5 mph - N/A   Overcast
2:35 PM 37.4 °F 28.9 °F 24.8 °F 60% 29.89 in 10.0 mi West 13.8 mph - N/A   Overcast
2:55 PM 37.4 °F 28.9 °F 24.8 °F 60% 29.89 in 10.0 mi West 13.8 mph 18.4 mph N/A   Scattered Clouds
3:15 PM 39.2 °F 30.8 °F 24.8 °F 56% 29.89 in 10.0 mi West 15.0 mph - N/A   Scattered Clouds
3:35 PM 37.4 °F 29.3 °F 23.0 °F 56% 29.89 in 10.0 mi West 12.7 mph 20.7 mph N/A   Scattered Clouds
3:55 PM 37.4 °F 30.3 °F 24.8 °F 60% 29.89 in 10.0 mi WSW 10.4 mph - N/A   Clear
4:15 PM 37.4 °F 29.3 °F 23.0 °F 56% 29.90 in 10.0 mi West 12.7 mph - N/A   Clear
4:35 PM 37.4 °F 28.9 °F 24.8 °F 60% 29.91 in 10.0 mi WSW 13.8 mph - N/A   Clear
4:55 PM 37.4 °F 30.3 °F 24.8 °F 60% 29.91 in 10.0 mi SW 10.4 mph - N/A   Clear
5:15 PM 35.6 °F 28.0 °F 24.8 °F 65% 29.91 in 10.0 mi SW 10.4 mph - N/A   Clear
5:35 PM 35.6 °F 28.0 °F 24.8 °F 65% 29.90 in 10.0 mi SW 10.4 mph - N/A   Clear
5:55 PM 33.8 °F 26.4 °F 24.8 °F 70% 29.91 in 10.0 mi SW 9.2 mph - N/A   Clear
6:15 PM 33.8 °F 25.8 °F 24.8 °F 70% 29.91 in 10.0 mi SW 10.4 mph - N/A   Clear
6:35 PM 32.0 °F 24.8 °F 24.8 °F 75% 29.91 in 10.0 mi SW 8.1 mph - N/A   Clear
6:55 PM 32.0 °F 26.4 °F 24.8 °F 75% 29.90 in 10.0 mi SW 5.8 mph - N/A   Clear
7:15 PM 32.0 °F 25.6 °F 24.8 °F 75% 29.91 in 10.0 mi WSW 6.9 mph - N/A   Clear
7:55 PM 30.2 °F 23.4 °F 24.8 °F 80% 29.91 in 10.0 mi SW 6.9 mph - N/A   Clear
8:15 PM 30.2 °F 22.6 °F 24.8 °F 80% 29.90 in 10.0 mi WSW 8.1 mph - N/A   Clear
8:35 PM 32.0 °F 25.6 °F 24.8 °F 75% 29.90 in 10.0 mi SW 6.9 mph - N/A   Clear
8:55 PM 30.2 °F 23.4 °F 24.8 °F 80% 29.89 in 10.0 mi WSW 6.9 mph - N/A   Clear
9:15 PM 30.2 °F 23.4 °F 24.8 °F 80% 29.89 in 10.0 mi WSW 6.9 mph - N/A   Clear
9:35 PM 30.2 °F 22.6 °F 24.8 °F 80% 29.89 in 10.0 mi SW 8.1 mph - N/A   Clear
9:55 PM 30.2 °F 21.9 °F 24.8 °F 80% 29.89 in 10.0 mi SW 9.2 mph - N/A   Clear
10:15 PM 32.0 °F 23.0 °F 24.8 °F 75% 29.89 in 10.0 mi SW 11.5 mph - N/A   Clear
10:35 PM 30.2 °F 21.9 °F 24.8 °F 80% 29.89 in 10.0 mi SW 9.2 mph - N/A   Clear
10:55 PM 30.2 °F 21.3 °F 24.8 °F 80% 29.89 in 10.0 mi WSW 10.4 mph - N/A   Clear
11:15 PM 30.2 °F 24.3 °F 24.8 °F 80% 29.88 in 10.0 mi SW 5.8 mph - N/A   Clear
11:35 PM 28.4 °F 22.2 °F 24.8 °F 86% 29.87 in 10.0 mi SW 5.8 mph - N/A   Clear
11:55 PM 28.4 °F 21.2 °F 24.8 °F 86% 29.87 in 10.0 mi WSW 6.9 mph - N/A   Clear